EZY54ED EGKK-EDDL

Flight info

Callsign EZY54ED
Flight time 0h 56m
Altitude 33000
Route ODVIK Y311 DVR UL9 KONAN DCT KOK DCT DENOX DCT SPI Y862 KENUM M170 NVO T857 BIKMU BIKMU1A
Aircraft A319/M-SDE2E3FGIJ1RWXYZ/LB1

Departure

Time 2026-04-17 07:08
Airport London Gatwick Airport (EGKK)

Arrival

Time 2026-04-17 08:04
Airport Düsseldorf Airport (EDDL)
Time Latitude Longitude Altitude Speed Heading
2026-04-17 06:26 51.16152 -0.18047 205 ft 0 kts 77°
2026-04-17 07:00 51.16151 -0.18056 214 ft 4 kts 77°
2026-04-17 07:00 51.16145 -0.18098 209 ft 4 kts 77°
2026-04-17 07:00 51.16141 -0.18140 211 ft 4 kts 91°
2026-04-17 07:01 51.16146 -0.18178 210 ft 4 kts 131°
2026-04-17 07:01 51.16162 -0.18194 213 ft 3 kts 167°
2026-04-17 07:01 51.16175 -0.18199 214 ft 0 kts 167°
2026-04-17 07:03 51.16169 -0.18196 213 ft 4 kts 167°
2026-04-17 07:03 51.16087 -0.18168 205 ft 17 kts 167°
2026-04-17 07:03 51.15971 -0.18128 205 ft 17 kts 168°
2026-04-17 07:04 51.15850 -0.18086 208 ft 18 kts 167°
2026-04-17 07:04 51.15725 -0.18041 210 ft 18 kts 159°
2026-04-17 07:04 51.15705 -0.17923 209 ft 17 kts 78°
2026-04-17 07:04 51.15727 -0.17759 205 ft 19 kts 78°
2026-04-17 07:05 51.15749 -0.17551 209 ft 19 kts 104°
2026-04-17 07:05 51.15629 -0.17471 212 ft 20 kts 167°
2026-04-17 07:05 51.15489 -0.17423 214 ft 21 kts 167°
2026-04-17 07:05 51.15342 -0.17372 209 ft 22 kts 168°
2026-04-17 07:06 51.15250 -0.17312 210 ft 22 kts 127°
2026-04-17 07:06 51.15269 -0.17076 205 ft 22 kts 76°
2026-04-17 07:06 51.15274 -0.16837 210 ft 22 kts 134°
2026-04-17 07:06 51.15131 -0.16824 207 ft 22 kts 224°
2026-04-17 07:07 51.15081 -0.17106 208 ft 19 kts 257°
2026-04-17 07:07 51.15043 -0.17382 209 ft 50 kts 257°
2026-04-17 07:07 51.14910 -0.18343 212 ft 125 kts 258°
2026-04-17 07:07 51.14696 -0.19956 409 ft 160 kts 258°
2026-04-17 07:08 51.14545 -0.21142 854 ft 163 kts 257°
2026-04-17 07:08 51.14316 -0.22913 1608 ft 165 kts 256°
2026-04-17 07:08 51.14054 -0.24799 2085 ft 185 kts 256°
2026-04-17 07:08 51.13762 -0.26906 2477 ft 212 kts 257°
2026-04-17 07:09 51.13877 -0.29354 3230 ft 227 kts 289°
2026-04-17 07:09 51.14844 -0.31384 3800 ft 237 kts 320°
2026-04-17 07:09 51.16371 -0.32246 4030 ft 245 kts 356°
2026-04-17 07:09 51.18025 -0.31539 4916 ft 252 kts 31°
2026-04-17 07:10 51.19192 -0.29478 5855 ft 256 kts 68°
2026-04-17 07:10 51.19632 -0.26741 6822 ft 256 kts 81°
2026-04-17 07:10 51.19962 -0.23938 7696 ft 259 kts 81°
2026-04-17 07:10 51.20285 -0.21076 8560 ft 265 kts 81°
2026-04-17 07:11 51.20632 -0.18087 9091 ft 286 kts 80°
2026-04-17 07:11 51.21030 -0.14863 9662 ft 304 kts 79°
2026-04-17 07:11 51.21464 -0.11519 10395 ft 315 kts 79°
2026-04-17 07:11 51.21933 -0.07969 10729 ft 339 kts 79°
2026-04-17 07:12 51.22428 -0.04227 11359 ft 349 kts 79°
2026-04-17 07:12 51.22934 -0.00407 12146 ft 354 kts 79°
2026-04-17 07:12 51.23442 0.03463 12802 ft 359 kts 79°
2026-04-17 07:12 51.23952 0.07378 13588 ft 363 kts 80°
2026-04-17 07:13 51.24469 0.11353 14287 ft 367 kts 80°
2026-04-17 07:13 51.24991 0.15367 14952 ft 372 kts 80°
2026-04-17 07:13 51.25353 0.19463 15588 ft 375 kts 90°
2026-04-17 07:13 51.25236 0.23615 16226 ft 376 kts 100°
2026-04-17 07:14 51.24905 0.27782 16871 ft 380 kts 100°
2026-04-17 07:14 51.24576 0.31997 17509 ft 385 kts 99°
2026-04-17 07:14 51.24251 0.36264 18157 ft 390 kts 99°
2026-04-17 07:14 51.23926 0.40581 18734 ft 394 kts 99°
2026-04-17 07:15 51.23598 0.44943 19324 ft 398 kts 99°
2026-04-17 07:15 51.23269 0.49284 19893 ft 402 kts 99°
2026-04-17 07:15 51.22929 0.53727 20478 ft 405 kts 100°
2026-04-17 07:15 51.22580 0.58213 21086 ft 409 kts 100°
2026-04-17 07:16 51.22225 0.62741 21696 ft 413 kts 100°
2026-04-17 07:16 51.21865 0.67306 22311 ft 417 kts 100°
2026-04-17 07:16 51.21499 0.71914 22916 ft 421 kts 100°
2026-04-17 07:16 51.21131 0.76568 23519 ft 425 kts 100°
2026-04-17 07:17 51.20759 0.81261 24033 ft 428 kts 100°
2026-04-17 07:17 51.20381 0.85990 24537 ft 432 kts 101°
2026-04-17 07:17 51.19606 0.95558 25542 ft 438 kts 100°
2026-04-17 07:18 51.19212 1.00391 26003 ft 441 kts 100°
2026-04-17 07:18 51.18816 1.05248 26448 ft 444 kts 100°
2026-04-17 07:18 51.18416 1.10136 26886 ft 446 kts 100°
2026-04-17 07:18 51.18011 1.15059 27317 ft 449 kts 100°
2026-04-17 07:19 51.17600 1.20010 27737 ft 452 kts 100°
2026-04-17 07:19 51.17185 1.24988 28163 ft 455 kts 100°
2026-04-17 07:19 51.16763 1.29996 28575 ft 458 kts 100°
2026-04-17 07:19 51.16334 1.35041 28995 ft 461 kts 100°
2026-04-17 07:20 51.15956 1.40126 29401 ft 464 kts 98°
2026-04-17 07:20 51.15673 1.45262 29797 ft 467 kts 96°
2026-04-17 07:20 51.15453 1.50439 30207 ft 470 kts 95°
2026-04-17 07:20 51.15256 1.55650 30549 ft 473 kts 95°
2026-04-17 07:21 51.15052 1.60888 30877 ft 475 kts 95°
2026-04-17 07:21 51.14826 1.66157 31195 ft 478 kts 95°
2026-04-17 07:21 51.14576 1.71447 31513 ft 480 kts 96°
2026-04-17 07:21 51.14310 1.76686 31814 ft 483 kts 96°
2026-04-17 07:22 51.14028 1.82015 32223 ft 482 kts 96°
2026-04-17 07:22 51.13742 1.87332 32660 ft 482 kts 96°
2026-04-17 07:22 51.13457 1.92651 33055 ft 482 kts 96°
2026-04-17 07:22 51.13176 1.97966 33174 ft 479 kts 96°
2026-04-17 07:23 51.12906 2.03167 33202 ft 464 kts 96°
2026-04-17 07:23 51.12641 2.08230 33200 ft 456 kts 96°
2026-04-17 07:23 51.12110 2.18240 33203 ft 452 kts 96°
2026-04-17 07:24 51.11563 2.28212 33207 ft 452 kts 96°
2026-04-17 07:24 51.11015 2.38175 33205 ft 452 kts 96°
2026-04-17 07:25 51.10457 2.48115 33218 ft 451 kts 96°
2026-04-17 07:25 51.09879 2.58042 33219 ft 451 kts 96°
2026-04-17 07:26 51.09071 2.67900 33220 ft 449 kts 105°
2026-04-17 07:26 51.07617 2.77560 33221 ft 449 kts 105°
2026-04-17 07:27 51.06150 2.87207 33220 ft 449 kts 105°
2026-04-17 07:27 51.04680 2.96838 33228 ft 448 kts 105°
2026-04-17 07:28 51.03208 3.06461 33229 ft 448 kts 105°
2026-04-17 07:28 51.01725 3.16070 33228 ft 448 kts 105°
2026-04-17 07:29 51.00246 3.25600 33226 ft 447 kts 105°
2026-04-17 07:29 50.98747 3.35187 33222 ft 447 kts 105°
2026-04-17 07:30 50.97247 3.44755 33228 ft 447 kts 105°
2026-04-17 07:30 50.95739 3.54311 33229 ft 446 kts 105°
2026-04-17 07:31 50.94222 3.63850 33231 ft 446 kts 105°
2026-04-17 07:31 50.92699 3.73380 33229 ft 446 kts 105°
2026-04-17 07:32 50.91168 3.82902 33238 ft 446 kts 105°
2026-04-17 07:32 50.89631 3.92413 33238 ft 446 kts 105°
2026-04-17 07:33 50.88083 4.01913 33241 ft 445 kts 106°
2026-04-17 07:33 50.86255 4.11275 33241 ft 445 kts 110°
2026-04-17 07:34 50.84126 4.20457 33242 ft 444 kts 112°
2026-04-17 07:34 50.81982 4.29620 33242 ft 444 kts 111°
2026-04-17 07:35 50.79915 4.38829 33244 ft 444 kts 110°
2026-04-17 07:35 50.77872 4.48049 33241 ft 444 kts 110°
2026-04-17 07:36 50.75815 4.57221 33250 ft 443 kts 110°
2026-04-17 07:36 50.73755 4.66302 33252 ft 442 kts 111°
2026-04-17 07:37 50.71678 4.75433 33248 ft 442 kts 110°
2026-04-17 07:37 50.69600 4.84542 33246 ft 441 kts 110°
2026-04-17 07:38 50.67516 4.93633 33244 ft 441 kts 110°
2026-04-17 07:38 50.65427 5.02726 33249 ft 445 kts 110°
2026-04-17 07:39 50.64353 5.07375 33248 ft 457 kts 110°
2026-04-17 07:39 50.63249 5.12133 33245 ft 466 kts 110°
2026-04-17 07:39 50.61010 5.21746 33055 ft 466 kts 110°
2026-04-17 07:40 50.59894 5.26529 32407 ft 464 kts 110°
2026-04-17 07:40 50.58787 5.31271 31830 ft 460 kts 110°
2026-04-17 07:40 50.57686 5.35976 31281 ft 456 kts 110°
2026-04-17 07:40 50.56596 5.40632 30608 ft 451 kts 110°
2026-04-17 07:41 50.55516 5.45240 29900 ft 447 kts 110°
2026-04-17 07:41 50.54444 5.49802 29170 ft 442 kts 110°
2026-04-17 07:41 50.53398 5.54311 28459 ft 436 kts 107°
2026-04-17 07:41 50.52795 5.58945 27786 ft 430 kts 94°
2026-04-17 07:42 50.52857 5.63592 27147 ft 423 kts 80°
2026-04-17 07:42 50.53555 5.68038 26511 ft 416 kts 67°
2026-04-17 07:42 50.54786 5.72108 25876 ft 410 kts 59°
2026-04-17 07:42 50.56135 5.76051 25263 ft 408 kts 59°
2026-04-17 07:43 50.57470 5.79963 24670 ft 405 kts 60°
2026-04-17 07:43 50.58773 5.83804 24089 ft 402 kts 60°
2026-04-17 07:43 50.60079 5.87674 23412 ft 400 kts 60°
2026-04-17 07:43 50.61371 5.91508 22909 ft 393 kts 60°
2026-04-17 07:44 50.62637 5.95264 22468 ft 384 kts 60°
2026-04-17 07:44 50.63872 5.98947 22010 ft 376 kts 61°
2026-04-17 07:44 50.65079 6.02558 21569 ft 369 kts 61°
2026-04-17 07:44 50.66264 6.06105 21150 ft 362 kts 61°
2026-04-17 07:45 50.67432 6.09589 20724 ft 358 kts 60°
2026-04-17 07:45 50.68595 6.13052 20303 ft 356 kts 60°
2026-04-17 07:45 50.69749 6.16495 19887 ft 354 kts 61°
2026-04-17 07:45 50.70900 6.19924 19475 ft 353 kts 61°
2026-04-17 07:46 50.72046 6.23344 19081 ft 352 kts 62°
2026-04-17 07:46 50.73005 6.26892 18695 ft 351 kts 67°
2026-04-17 07:46 50.73912 6.30472 18249 ft 350 kts 67°
2026-04-17 07:46 50.74816 6.34034 17795 ft 349 kts 67°
2026-04-17 07:47 50.75717 6.37594 17347 ft 349 kts 67°
2026-04-17 07:47 50.76614 6.41145 16905 ft 348 kts 68°
2026-04-17 07:47 50.77509 6.44694 16470 ft 347 kts 68°
2026-04-17 07:47 50.78398 6.48232 16037 ft 347 kts 68°
2026-04-17 07:48 50.79286 6.51774 15628 ft 346 kts 68°
2026-04-17 07:48 50.80170 6.55302 15211 ft 345 kts 68°
2026-04-17 07:48 50.81179 6.58730 14802 ft 343 kts 56°
2026-04-17 07:48 50.82714 6.61579 14393 ft 340 kts 39°
2026-04-17 07:49 50.84679 6.63585 13986 ft 335 kts 22°
2026-04-17 07:49 50.86891 6.64632 13535 ft 331 kts
2026-04-17 07:49 50.89148 6.65116 13094 ft 328 kts
2026-04-17 07:49 50.91391 6.65593 12671 ft 327 kts
2026-04-17 07:50 50.93646 6.66078 12438 ft 318 kts
2026-04-17 07:50 50.95788 6.66540 12235 ft 311 kts
2026-04-17 07:50 50.97903 6.66999 12013 ft 304 kts
2026-04-17 07:50 51.00016 6.67452 11704 ft 301 kts
2026-04-17 07:51 51.02075 6.67860 11246 ft 303 kts
2026-04-17 07:51 51.04177 6.67790 10814 ft 302 kts 354°
2026-04-17 07:51 51.06275 6.67606 10406 ft 302 kts 355°
2026-04-17 07:51 51.08375 6.67430 9988 ft 302 kts 355°
2026-04-17 07:52 51.10475 6.67425 9531 ft 303 kts
2026-04-17 07:52 51.12532 6.68145 9088 ft 303 kts 15°
2026-04-17 07:52 51.14556 6.69083 8653 ft 302 kts 15°
2026-04-17 07:52 51.16572 6.70008 8173 ft 300 kts 15°
2026-04-17 07:53 51.18563 6.70915 7701 ft 296 kts 15°
2026-04-17 07:53 51.20526 6.71807 7228 ft 292 kts 15°
2026-04-17 07:53 51.22467 6.72691 6762 ft 288 kts 16°
2026-04-17 07:53 51.24380 6.73564 6280 ft 284 kts 16°
2026-04-17 07:54 51.26263 6.74426 5780 ft 279 kts 16°
2026-04-17 07:54 51.28065 6.75402 5370 ft 267 kts 26°
2026-04-17 07:54 51.29609 6.76876 5115 ft 251 kts 37°
2026-04-17 07:54 51.30980 6.78493 4860 ft 241 kts 37°
2026-04-17 07:55 51.32324 6.80071 4641 ft 238 kts 37°
2026-04-17 07:55 51.33651 6.81632 4451 ft 237 kts 37°
2026-04-17 07:55 51.34977 6.83197 4273 ft 236 kts 37°
2026-04-17 07:55 51.36295 6.84751 4106 ft 235 kts 37°
2026-04-17 07:56 51.37615 6.86303 4003 ft 235 kts 37°
2026-04-17 07:56 51.38919 6.87844 3999 ft 228 kts 37°
2026-04-17 07:56 51.40160 6.89312 3887 ft 216 kts 37°
2026-04-17 07:56 51.40940 6.90235 3804 ft 205 kts 37°
2026-04-17 07:57 51.42050 6.91545 3671 ft 191 kts 37°
2026-04-17 07:57 51.43101 6.92786 3548 ft 186 kts 37°
2026-04-17 07:57 51.44133 6.94016 3422 ft 184 kts 39°
2026-04-17 07:57 51.44916 6.95602 3347 ft 182 kts 66°
2026-04-17 07:58 51.45202 6.97559 3293 ft 181 kts 92°
2026-04-17 07:58 51.44950 6.99508 3245 ft 179 kts 116°
2026-04-17 07:58 51.44226 7.01093 3191 ft 177 kts 141°
2026-04-17 07:58 51.43166 7.02061 3110 ft 176 kts 164°
2026-04-17 07:59 51.41960 7.02246 3033 ft 176 kts 188°
2026-04-17 07:59 51.40816 7.01622 3009 ft 175 kts 212°
2026-04-17 07:59 51.39935 7.00301 3023 ft 175 kts 230°
2026-04-17 07:59 51.39173 6.98793 3039 ft 173 kts 232°
2026-04-17 08:00 51.38431 6.97258 2995 ft 171 kts 232°
2026-04-17 08:00 51.37727 6.95780 2824 ft 162 kts 233°
2026-04-17 08:00 51.37073 6.94400 2629 ft 150 kts 233°
2026-04-17 08:00 51.36459 6.93103 2453 ft 144 kts 233°
2026-04-17 08:01 51.35874 6.91869 2273 ft 135 kts 233°
2026-04-17 08:01 51.35316 6.90690 2094 ft 132 kts 233°
2026-04-17 08:01 51.34763 6.89524 1919 ft 131 kts 233°
2026-04-17 08:01 51.34215 6.88366 1740 ft 130 kts 233°
2026-04-17 08:02 51.33668 6.87214 1559 ft 130 kts 233°
2026-04-17 08:02 51.33125 6.86067 1386 ft 129 kts 233°
2026-04-17 08:02 51.32582 6.84923 1215 ft 129 kts 232°
2026-04-17 08:02 51.32047 6.83795 1042 ft 129 kts 232°
2026-04-17 08:03 51.31504 6.82652 858 ft 129 kts 232°
2026-04-17 08:03 51.30964 6.81515 693 ft 128 kts 232°
2026-04-17 08:03 51.30433 6.80372 523 ft 127 kts 230°
2026-04-17 08:03 51.29880 6.79257 335 ft 128 kts 233°
2026-04-17 08:04 51.29348 6.78123 176 ft 128 kts 233°
2026-04-17 08:04 51.28861 6.77082 128 ft 101 kts 232°
2026-04-17 08:04 51.28497 6.76323 127 ft 68 kts 232°
2026-04-17 08:04 51.28307 6.75925 129 ft 32 kts 233°
2026-04-17 08:05 51.28177 6.75651 126 ft 31 kts 232°
2026-04-17 08:05 51.28005 6.75516 128 ft 25 kts 164°
2026-04-17 08:05 51.27973 6.75540 126 ft 0 kts 152°
2026-04-17 08:05 51.27972 6.75541 124 ft 0 kts 152°
2026-04-17 08:06 51.27968 6.75544 125 ft 1 kts 152°
2026-04-17 08:06 51.27955 6.75559 129 ft 6 kts 139°
2026-04-17 08:06 51.27981 6.75714 129 ft 23 kts 52°
2026-04-17 08:06 51.28082 6.75922 127 ft 24 kts 52°
2026-04-17 08:07 51.28185 6.76138 128 ft 25 kts 52°
2026-04-17 08:07 51.28283 6.76345 125 ft 18 kts 52°
2026-04-17 08:07 51.28310 6.76479 124 ft 13 kts 126°
2026-04-17 08:07 51.28237 6.76449 124 ft 12 kts 207°
2026-04-17 08:08 51.28196 6.76508 126 ft 9 kts 95°
2026-04-17 08:08 51.28193 6.76554 128 ft 2 kts 96°
2026-04-17 08:08 51.28193 6.76555 128 ft 0 kts 96°
2026-04-17 08:12 51.28193 6.76556 128 ft 0 kts 96°